GW5434 Weather Reports


time (UTC)temp
C
wind
direction
speed
KPH
gust
KPH
rain 1hr
cm
rain 24hr
cm
rain mn
cm
humidity
%
barometer
mb
20260904133016 25 302 1.6 4.8 0.00 0.00 0.00 87 1015.9
20260904131523 25 307 0.0 3.2 0.00 0.00 0.00 89 1015.9
20260904130033 24 40 0.0 0.0 0.00 0.00 0.00 90 1016.0
20260904124504 24 113 0.0 0.0 0.00 0.00 0.00 90 1016.0
20260904123012 24 152 0.0 0.0 0.00 0.00 0.00 91 1015.9
20260904121516 23 19 0.0 0.0 0.00 0.00 0.00 92 1015.7
20260904120025 23 19 0.0 0.0 0.00 0.00 0.00 92 1015.6
20260904114535 23 349 0.0 0.0 0.00 0.00 0.00 93 1015.4
20260904113010 23 22 0.0 0.0 0.00 0.00 0.00 93 1015.4
20260904111524 23 22 0.0 0.0 0.00 0.00 0.00 93 1015.3
20260904110022 23 108 0.0 0.0 0.00 0.00 0.00 92 1015.2
20260904104523 23 108 0.0 0.0 0.00 0.00 0.00 92 1015.1
20260904103031 23 108 0.0 0.0 0.00 0.00 0.00 91 1015.1
20260904101511 23 108 0.0 0.0 0.00 0.00 0.00 91 1015.0
20260904100017 23 106 0.0 0.0 0.00 0.00 0.00 91 1014.9
20260904094534 23 128 0.0 0.0 0.00 0.00 0.00 91 1014.9
20260904093028 23 120 0.0 0.0 0.00 0.00 0.00 91 1014.9
20260904091530 23 120 0.0 0.0 0.00 0.00 0.00 91 1014.8
20260904090013 23 120 0.0 0.0 0.00 0.00 0.00 90 1014.8
20260904084518 23 127 0.0 0.0 0.00 0.00 0.00 90 1014.8
20260904083034 23 143 0.0 0.0 0.00 0.00 0.00 90 1014.7
20260904081529 23 148 0.0 0.0 0.00 0.00 0.00 91 1014.7
20260904080030 23 148 0.0 0.0 0.00 0.00 0.00 91 1014.7
20260904074516 23 148 0.0 0.0 0.00 0.00 0.00 90 1014.7
20260904073023 23 148 0.0 0.0 0.00 0.00 0.00 91 1014.7
20260904071524 23 148 0.0 0.0 0.00 0.00 0.00 90 1014.7
20260904070029 23 148 0.0 0.0 0.00 0.00 0.00 91 1014.8
20260904064532 23 148 0.0 0.0 0.00 0.00 0.00 91 1014.9
20260904063024 23 148 0.0 0.0 0.00 0.00 0.00 91 1015.0
20260904061521 23 148 0.0 0.0 0.00 0.00 0.00 91 1015.0
20260904060027 23 148 0.0 0.0 0.00 0.00 0.00 90 1015.0
20260904054532 23 119 0.0 0.0 0.00 0.00 0.00 89 1014.9
20260904053032 23 119 0.0 0.0 0.00 0.00 0.00 90 1015.0
20260904051518 23 103 0.0 0.0 0.00 0.00 0.00 89 1015.0
20260904050025 23 111 0.0 0.0 0.00 0.00 0.00 90 1015.0
20260904044503 23 110 0.0 0.0 0.00 0.00 0.00 89 1015.1
20260904043007 23 110 0.0 0.0 0.00 0.00 0.00 90 1015.0
20260904041514 23 110 0.0 0.0 0.00 0.00 0.00 89 1015.1
20260904040021 23 143 0.0 0.0 0.00 0.00 0.00 89 1015.1
20260904034503 23 143 0.0 0.0 0.00 0.00 0.00 89 1015.2
20260904033007 24 143 0.0 0.0 0.00 0.00 0.00 88 1015.3
20260904031508 24 154 0.0 0.0 0.00 0.00 0.00 88 1015.5
20260904030017 25 155 0.0 0.0 0.00 0.00 0.00 87 1015.5
20260904024520 25 154 0.0 0.0 0.00 0.00 0.00 87 1015.6
20260904023003 25 15 0.0 0.0 0.00 0.00 0.00 85 1015.6
20260904021509 25 331 0.0 0.0 0.00 0.00 0.00 85 1015.5
20260904020012 25 117 0.0 0.0 0.00 0.00 0.00 84 1015.5
20260904014518 25 165 0.0 0.0 0.00 0.00 0.00 85 1015.4
20260904013025 26 98 0.0 0.0 0.00 0.00 0.00 83 1015.2
20260904011504 26 271 0.0 0.0 0.00 0.00 0.00 82 1014.9
20260904010015 26 271 0.0 0.0 0.00 0.00 0.00 81 1014.9
20260904004514 26 286 0.0 0.0 0.00 0.00 0.00 81 1014.8
20260904003025 27 285 1.6 4.8 0.00 0.00 0.00 80 1014.7
20260904001524 27 327 0.0 4.8 0.00 0.00 0.00 78 1014.4
20260904000006 28 279 0.0 6.4 0.00 0.00 0.00 77 1014.3
20260903234513 29 209 0.0 3.2 0.00 0.00 0.00 75 1014.4
20260903233015 30 211 0.0 0.0 0.00 0.00 0.00 75 1014.3
20260903231532 30 148 0.0 4.8 0.00 0.00 0.00 73 1014.3
20260903230032 30 129 1.6 3.2 0.00 0.00 0.00 73 1014.2
20260903224525 30 139 0.0 4.8 0.00 0.00 0.00 73 1014.2
20260903223013 31 276 1.6 6.4 0.00 0.00 0.00 73 1014.1
20260903221520 32 215 1.6 8.0 0.00 0.00 0.00 72 1013.8
20260903220030 33 221 0.0 0.0 0.00 0.00 0.00 69 1013.9
20260903214537 33 175 0.0 0.0 0.00 0.00 0.00 67 1013.7
20260903213011 33 322 1.6 1.6 0.00 0.00 0.00 65 1013.3
20260903211514 33 277 0.0 8.0 0.00 0.00 0.00 63 1013.3
20260903210020 33 290 3.2 4.8 0.00 0.00 0.00 63 1013.5
20260903204527 33 307 4.8 12.9 0.00 0.00 0.00 62 1013.7
20260903203029 34 316 1.6 4.8 0.00 0.00 0.00 60 1013.8
20260903201513 34 238 1.6 4.8 0.00 0.00 0.00 54 1014.0
20260903200016 35 323 3.2 6.4 0.00 0.00 0.00 55 1014.1
20260903194506 34 72 1.6 11.3 0.00 0.00 0.00 55 1014.2
20260903193004 35 26 3.2 9.7 0.00 0.00 0.00 53 1014.5
20260903191508 36 326 3.2 8.0 0.00 0.00 0.00 47 1014.5
20260903190011 36 344 4.8 14.5 0.00 0.00 0.00 53 1014.7
20260903184504 37 101 3.2 9.7 0.00 0.00 0.00 47 1014.9
20260903183006 36 38 4.8 17.7 0.00 0.00 0.00 50 1015.1
20260903181507 36 137 4.8 8.0 0.00 0.00 0.00 52 1015.3
20260903180010 35 115 1.6 6.4 0.00 0.00 0.00 57 1015.6
20260903174514 35 123 3.2 12.9 0.00 0.00 0.00 56 1015.9
20260903173003 35 220 0.0 9.7 0.00 0.00 0.00 55 1016.0
20260903171506 35 30 3.2 9.7 0.00 0.00 0.00 56 1016.2
20260903170007 34 92 1.6 6.4 0.00 0.00 0.00 56 1016.4
20260903164512 34 282 3.2 11.3 0.00 0.00 0.00 58 1016.6
20260903163015 33 23 3.2 8.0 0.00 0.00 0.00 61 1016.8
20260903161519 33 110 3.2 6.4 0.00 0.00 0.00 60 1016.8
20260903160003 33 112 1.6 6.4 0.00 0.00 0.00 65 1016.7
20260903154505 32 308 3.2 8.0 0.00 0.00 0.00 66 1016.8
20260903153015 32 93 1.6 8.0 0.00 0.00 0.00 69 1016.8
20260903151518 31 302 3.2 9.7 0.00 0.00 0.00 70 1016.7
20260903150022 31 70 1.6 8.0 0.00 0.00 0.00 72 1016.6
20260903144505 30 295 3.2 9.7 0.00 0.00 0.00 74 1016.7
20260903143010 30 67 4.8 11.3 0.00 0.00 0.00 76 1016.8
20260903141515 29 117 0.0 8.0 0.00 0.00 0.00 78 1016.7
20260903140021 28 327 1.6 8.0 0.00 0.00 0.00 80 1016.8
20260903134519 27 335 1.6 8.0 0.00 0.00 0.00 82 1016.7